Flag for U.S.A. Weather past 2 weeks in Pensacola, Florida, U.S.A.

Now
71 °F

Clear.


Feels Like: 67 °F
Forecast: 68 / 78 °F
Wind: 9 mph from North

Location: Pensacola Regional Airport

Current Time: Apr 27, 2015 at 6:09:45 AM

Latest Report: Apr 27, 2015 at 4:53 AM


Visibility: 10 mi

Pressure: 29.73 "Hg

Humidity: 93%

Dew point: 69 °F

Location of PensacolaLocation

Historic Weather in Pensacola — Graph

°F

Pensacola temperature yesterday

Maximum temperature yesterday: 86 °F (at 1:53 PM)
Minimum temperature yesterday: 67 °F (at 3:53 AM)
Average temperature yesterday: 76 °F

Past Weeks' High & Low Weather Summary

 TemperatureHumidityPressure
High86 °F (Apr 26, 1:53 PM)100% (Apr 12, 6:56 AM)30.11 "Hg (Apr 12, 6:56 AM)
Low58 °F (Apr 21, 4:53 AM)32% (Apr 21, 2:53 PM)29.70 "Hg (Apr 25, 6:53 PM)
Average72 °F84%29.95 "Hg
* Reported Apr 12 4:53 AM — Apr 27 4:53 AM, Pensacola, Weather by CustomWeather, © 2015

Note: Actual official high and low records may vary slightly from our data, if they occured in-between our weather recording intervals... More about our weather records

Advertising

Pensacola weather history for previous 24 hours

 ConditionsComfort  
Time TempWeatherWind HumidityBarometerVisibility
4:53 AM
Mon, Apr 27
71 °FClear.9 mph93%29.73 "Hg10 mi
3:53 AM72 °FClear.7 mph93%29.72 "Hg9 mi
2:53 AM72 °FClear.6 mph97%29.70 "Hg10 mi
1:53 AM73 °FClear.3 mph97%29.71 "Hg9 mi
12:53 AM74 °FClear.6 mph94%29.74 "Hg9 mi
11:53 PM
Sun, Apr 26
74 °FClear.8 mph94%29.75 "Hg9 mi
10:53 PM74 °FClear.6 mph94%29.74 "Hg9 mi
9:53 PM75 °FClear.6 mph90%29.73 "Hg10 mi
8:53 PM75 °FClear.6 mph90%29.73 "Hg10 mi
7:53 PM77 °FClear.9 mph74%29.71 "Hg10 mi
6:53 PM79 °FSunny.10 mph65%29.71 "Hg10 mi
5:53 PM80 °FSunny.9 mph62%29.71 "Hg10 mi
4:53 PM81 °FSunny.10 mph65%29.72 "Hg10 mi
3:53 PM82 °FSunny.13 mph72%29.71 "Hg10 mi
2:53 PM84 °FPassing clouds.14 mph61%29.72 "Hg10 mi
1:53 PM86 °FSunny.8 mph61%29.74 "Hg10 mi
12:53 PM85 °FSunny.5 mph53%29.74 "Hg10 mi
11:53 AM83 °FSunny.6 mph61%29.76 "Hg10 mi
10:53 AM80 °FSunny.6 mph67%29.78 "Hg10 mi
9:53 AM78 °FScattered clouds.10 mph74%29.79 "Hg10 mi
8:53 AM74 °FScattered clouds.8 mph82%29.78 "Hg10 mi
7:53 AM71 °FPartly sunny.7 mph84%29.77 "Hg10 mi
6:53 AM68 °FOvercast.7 mph90%29.76 "Hg10 mi
Weather by CustomWeather, © 2015

See weather overviewHow to use our weather pages